Weather History for Robinson, IL

Change the Weather History Date:

Friday, June 6, 2014

  Actual Average (KLWV) Record (KLWV)
Temperature  
Mean Temperature 71 °F 72 °F  
Max Temperature 84 °F 83 °F 95 °F (2011)
Min Temperature 58 °F 61 °F 44 °F (1998)
Degree Days  
Heating Degree Days 0 1  
Month to date heating degree days 6  
Since 1 June heating degree days 6  
Since 1 July heating degree days 4679  
Cooling Degree Days 6 8  
Month to date cooling degree days 43  
Year to date cooling degree days 182  
Since 1 June cooling degree days 43  
Growing Degree Days 21 (Base 50)    
Moisture  
Dew Point 60 °F    
Average Humidity 70    
Maximum Humidity 98    
Minimum Humidity 40    
Precipitation  
Precipitation 0.00 in 0.14 in 1.86 in (2008)
Month to date precipitation 0.94  
Year to date precipitation 18.50  
Sea Level Pressure  
Sea Level Pressure 29.98 in    
Wind  
Wind Speed 2 mph (East)    
Max Wind Speed 7 mph    
Max Gust Speed -    
Visibility 9 miles    
Events      
T = Trace of Precipitation, MM = Missing Value Source: NWS Daily Summary

Daily Weather History Graph

Daily Weather History Graph

Search for Another Location

Airport:

Trip Planner

Search our weather history database for the weather conditions in past years. The results will help you decide how hot, cold, wet, or windy it might be!

Date:

Astronomy

Jun. 06, 2014 Rise Set
Actual Time 5:25 AM CDT 8:13 PM CDT
Civil Twilight 4:53 AM CDT 8:45 PM CDT
Nautical Twilight 4:13 AM CDT 9:25 PM CDT
Astronomical Twilight 3:28 AM CDT 10:11 PM CDT
Moon 1:35 PM CDT (6/6) 1:13 AM CDT (6/6)
Length of Visible Light 15h 52m
Length of Day
14h 48m
First Quarter, 58% of the Moon is Illuminated
Jun 6
First Quarter
Jun 12
Full
Jun 19
Last Quarter
Jun 27
New
Jul 5
First Quarter

Hourly Weather History & Observations

Time (CDT) Temp. Heat Index Dew Point Humidity Pressure Visibility Wind Dir Wind Speed Gust Speed Precip Events Conditions
12:15 AM 62.8 °F - 60.6 °F 93% 29.95 in 10.0 mi Calm Calm - N/A   Clear
12:35 AM 61.5 °F - 58.8 °F 91% 29.94 in 10.0 mi Calm Calm - N/A   Clear
12:55 AM 61.2 °F - 58.3 °F 90% 29.93 in 10.0 mi Calm Calm - N/A   Clear
1:15 AM 60.6 °F - 59.0 °F 94% 29.93 in 10.0 mi Calm Calm - N/A   Clear
1:35 AM 60.4 °F - 58.8 °F 94% 29.93 in 10.0 mi Calm Calm - N/A   Clear
1:55 AM 60.3 °F - 59.0 °F 96% 29.94 in 10.0 mi Calm Calm - N/A   Clear
2:15 AM 60.6 °F - 59.4 °F 96% 29.94 in 10.0 mi NNE 3.5 mph - N/A   Clear
2:35 AM 60.8 °F - 59.4 °F 95% 29.95 in 10.0 mi Calm Calm - N/A   Clear
2:55 AM 60.3 °F - 59.2 °F 96% 29.95 in 10.0 mi Calm Calm - N/A   Clear
3:15 AM 60.1 °F - 59.0 °F 96% 29.96 in 10.0 mi Calm Calm - N/A   Clear
3:35 AM 59.7 °F - 58.8 °F 97% 29.96 in 7.0 mi North 4.6 mph - N/A   Clear
3:55 AM 59.5 °F - 58.6 °F 97% 29.97 in 7.0 mi Calm Calm - N/A   Clear
4:15 AM 59.5 °F - 58.6 °F 97% 29.97 in 5.0 mi Calm Calm - N/A   Clear
4:35 AM 59.0 °F - 58.1 °F 97% 29.97 in 7.0 mi Calm Calm - N/A   Clear
4:55 AM 58.6 °F - 57.7 °F 97% 29.96 in 7.0 mi Calm Calm - N/A   Clear
5:15 AM 58.8 °F - 58.1 °F 97% 29.96 in 4.0 mi Calm Calm - N/A   Clear
5:35 AM 58.8 °F - 58.1 °F 97% 29.96 in 4.0 mi Calm Calm - N/A   Clear
5:55 AM 59.0 °F - 58.1 °F 97% 29.96 in 5.0 mi Calm Calm - N/A   Clear
6:15 AM 59.9 °F - 59.4 °F 98% 29.97 in 7.0 mi Calm Calm - N/A   Clear
6:35 AM 61.3 °F - 60.8 °F 98% 29.98 in 7.0 mi Calm Calm - N/A   Clear
6:55 AM 63.7 °F - 61.2 °F 91% 29.99 in 10.0 mi Calm Calm - N/A   Clear
7:15 AM 65.7 °F - 61.5 °F 86% 30.00 in 10.0 mi East 3.5 mph - N/A   Clear
7:35 AM 67.1 °F - 61.0 °F 81% 30.01 in 10.0 mi ESE 3.5 mph - N/A   Clear
7:55 AM 68.9 °F - 60.4 °F 74% 30.01 in 10.0 mi ESE 5.8 mph - N/A   Clear
8:15 AM 70.3 °F - 60.8 °F 72% 30.01 in 10.0 mi ESE 3.5 mph - N/A   Clear
8:35 AM 71.8 °F - 60.3 °F 67% 30.02 in 10.0 mi SE 5.8 mph - N/A   Clear
8:55 AM 73.6 °F - 60.8 °F 64% 30.02 in 10.0 mi SE 3.5 mph - N/A   Clear
9:15 AM 74.5 °F - 60.3 °F 61% 30.01 in 10.0 mi SE 4.6 mph - N/A   Clear
9:35 AM 76.1 °F - 60.1 °F 57% 30.01 in 10.0 mi SE 4.6 mph - N/A   Clear
9:55 AM 77.0 °F - 61.3 °F 58% 30.00 in 10.0 mi ESE 5.8 mph - N/A   Clear
10:15 AM 77.7 °F - 60.4 °F 55% 30.00 in 10.0 mi ESE 4.6 mph - N/A   Clear
10:35 AM 78.6 °F - 60.1 °F 53% 30.00 in 10.0 mi East 4.6 mph - N/A   Clear
10:55 AM 79.2 °F - 59.7 °F 51% 30.00 in 10.0 mi East 4.6 mph - N/A   Clear
11:15 AM 80.6 °F 81.5 °F 61.0 °F 51% 30.00 in 10.0 mi East 4.6 mph - N/A   Clear
11:35 AM 78.4 °F - 60.1 °F 53% 30.00 in 10.0 mi East 3.5 mph - N/A   Clear
11:55 AM 81.0 °F 81.6 °F 60.1 °F 49% 30.00 in 10.0 mi SE 6.9 mph - N/A   Clear
12:15 PM 81.3 °F 81.3 °F 57.7 °F 44% 30.01 in 10.0 mi Calm Calm - N/A   Clear
12:35 PM 81.9 °F 82.1 °F 59.2 °F 46% 30.00 in 10.0 mi ESE 4.6 mph - N/A   Clear
12:55 PM 79.7 °F - 58.8 °F 49% 30.01 in 10.0 mi Calm Calm - N/A   Clear
1:15 PM 79.5 °F - 59.0 °F 49% 30.00 in 10.0 mi SE 6.9 mph - N/A   Clear
1:35 PM 83.1 °F 83.2 °F 59.5 °F 45% 29.99 in 10.0 mi East 6.9 mph - N/A   Clear
1:55 PM 79.7 °F - 59.4 °F 50% 29.99 in 10.0 mi SE 6.9 mph - N/A   Clear
2:15 PM 82.6 °F 82.5 °F 58.8 °F 44% 29.99 in 10.0 mi NE 4.6 mph - N/A   Clear
2:35 PM 82.9 °F 82.8 °F 58.8 °F 44% 29.98 in 10.0 mi ESE 5.8 mph - N/A   Clear
2:55 PM 83.5 °F 82.8 °F 56.7 °F 40% 29.97 in 10.0 mi South 3.5 mph - N/A   Clear
3:15 PM 82.0 °F 82.1 °F 59.0 °F 45% 29.97 in 10.0 mi SSE 5.8 mph - N/A   Clear
3:35 PM 84.0 °F 84.2 °F 60.8 °F 45% 29.96 in 10.0 mi NE 4.6 mph - N/A   Clear
3:55 PM 82.6 °F 82.8 °F 59.9 °F 46% 29.95 in 10.0 mi ENE 3.5 mph - N/A   Clear
4:15 PM 83.3 °F 82.9 °F 58.3 °F 42% 29.95 in 10.0 mi Calm Calm - N/A   Clear
4:35 PM 83.1 °F 82.9 °F 58.3 °F 43% 29.95 in 10.0 mi Calm Calm - N/A   Clear
4:55 PM 83.3 °F 83.5 °F 60.3 °F 46% 29.95 in 10.0 mi NE 6.9 mph - N/A   Clear
5:15 PM 83.3 °F 82.9 °F 58.1 °F 42% 29.95 in 10.0 mi Calm Calm - N/A   Clear
5:35 PM 83.5 °F 83.6 °F 59.9 °F 45% 29.95 in 10.0 mi SE 3.5 mph - N/A   Clear
5:55 PM 82.2 °F 82.6 °F 60.1 °F 47% 29.95 in 10.0 mi SSE 3.5 mph - N/A   Clear
6:15 PM 80.6 °F 81.0 °F 58.5 °F 47% 29.96 in 10.0 mi Calm Calm - N/A   Clear
6:35 PM 78.3 °F - 61.5 °F 56% 29.96 in 10.0 mi Calm Calm - N/A   Clear
6:55 PM 79.3 °F - 63.3 °F 58% 29.95 in 10.0 mi East 3.5 mph - N/A   Clear
7:15 PM 78.1 °F - 62.2 °F 58% 29.96 in 10.0 mi ESE 4.6 mph - N/A   Clear
7:35 PM 77.4 °F - 63.1 °F 61% 29.97 in 10.0 mi Calm Calm - N/A   Clear
7:55 PM 77.2 °F - 64.4 °F 65% 29.96 in 10.0 mi East 3.5 mph - N/A   Clear
8:15 PM 74.3 °F - 62.4 °F 66% 29.96 in 10.0 mi Calm Calm - N/A   Clear
8:35 PM 72.3 °F - 62.6 °F 71% 29.97 in 10.0 mi Calm Calm - N/A   Clear
8:55 PM 72.0 °F - 63.5 °F 75% 29.97 in 10.0 mi Calm Calm - N/A   Clear
9:15 PM 71.8 °F - 61.9 °F 71% 29.97 in 10.0 mi Calm Calm - N/A   Clear
9:35 PM 68.7 °F - 61.9 °F 79% 29.98 in 10.0 mi NE 4.6 mph - N/A   Clear
9:55 PM 68.2 °F - 62.1 °F 81% 29.98 in 10.0 mi NE 4.6 mph - N/A   Clear
10:15 PM 67.6 °F - 63.1 °F 85% 29.99 in 10.0 mi Calm Calm - N/A   Clear
10:35 PM 67.3 °F - 62.6 °F 85% 30.00 in 10.0 mi Calm Calm - N/A   Clear
10:55 PM 66.6 °F - 63.5 °F 90% 30.01 in 10.0 mi Calm Calm - N/A   Clear
11:15 PM 66.4 °F - 63.9 °F 92% 30.01 in 10.0 mi Calm Calm - N/A   Clear
11:35 PM 65.3 °F - 62.1 °F 89% 30.01 in 10.0 mi Calm Calm - N/A   Clear
11:55 PM 65.7 °F - 63.5 °F 93% 30.01 in 10.0 mi Calm Calm - N/A   Clear